Weather History for Hettinger, ND

Change the Weather History Date:

Wednesday, July 31, 2013

  Actual Average Record
Temperature  
Mean Temperature 66 °F -  
Max Temperature 80 °F 85 °F 100 °F (2007)
Min Temperature 52 °F 55 °F 46 °F (2003)
Cooling Degree Days 1 6  
Month to date cooling degree days 65 150  
Year to date cooling degree days 98 200  
Since 1 June cooling degree days 91 195  
Growing Degree Days 16 (Base 50)    
Moisture  
Dew Point 53 °F    
Average Humidity 67    
Maximum Humidity 100    
Minimum Humidity 30    
Precipitation  
Precipitation 0.00 in 0.07 in 0.14 in (2007)
Month to date precipitation 1.74 2.40  
Year to date precipitation 14.70 10.58  
Sea Level Pressure  
Sea Level Pressure 30.14 in    
Wind  
Wind Speed 7 mph (NW)    
Max Wind Speed 20 mph    
Max Gust Speed 24 mph    
Visibility 10 miles    
Events Thunderstorm    
T = Trace of Precipitation, MM = Missing Value Source: NWS Daily Summary

Daily Weather History Graph

Daily Weather History Graph

Search for Another Location

Airport:

Trip Planner

Search our weather history database for the weather conditions in past years. The results will help you decide how hot, cold, wet, or windy it might be!

Date:

Astronomy

Jul. 31, 2013 Rise Set
Actual Time 5:32 AM MDT 8:21 PM MDT
Civil Twilight 4:57 AM MDT 8:55 PM MDT
Nautical Twilight 4:13 AM MDT 9:39 PM MDT
Astronomical Twilight 3:21 AM MDT 10:31 PM MDT
Moon 12:29 AM MDT (7/31) 3:40 PM MDT (7/31)
Length of Visible Light 15h 58m
Length of Day
14h 48m
Waning Crescent, 31% of the Moon is Illuminated
Jul 31
Waning Crescent
Aug 6
New
Aug 14
First Quarter
Aug 20
Full
Aug 28
Last Quarter

Hourly Weather History & Observations

Time (MDT) Temp. Dew Point Humidity Pressure Visibility Wind Dir Wind Speed Gust Speed Precip Events Conditions
1:53 AM 59.0 °F 57.0 °F 93% 30.16 in 10.0 mi WNW 3.5 mph - N/A   Scattered Clouds
2:53 AM 57.9 °F 55.0 °F 90% 30.17 in 10.0 mi NW 8.1 mph - N/A   Clear
3:20 AM 60.8 °F 55.4 °F 82% 30.19 in 10.0 mi NNW 10.4 mph - N/A Thunderstorm Thunderstorm
3:35 AM 62.6 °F 57.2 °F 82% 30.18 in 10.0 mi NW 4.6 mph - N/A   Overcast
3:53 AM 59.0 °F 55.9 °F 90% 30.15 in 10.0 mi WNW 4.6 mph - N/A   Mostly Cloudy
4:53 AM 54.0 °F 53.1 °F 97% 30.16 in 9.0 mi NNW 3.5 mph - N/A   Clear
5:53 AM 53.1 °F 52.0 °F 96% 30.18 in 7.0 mi NW 5.8 mph - N/A   Clear
6:53 AM 57.0 °F 55.0 °F 93% 30.19 in 9.0 mi WNW 6.9 mph - N/A   Clear
7:53 AM 64.9 °F 57.9 °F 78% 30.18 in 10.0 mi NNE 4.6 mph - N/A   Clear
8:53 AM 66.9 °F 59.0 °F 76% 30.19 in 10.0 mi Variable 3.5 mph - N/A   Clear
9:53 AM 70.0 °F 57.9 °F 65% 30.19 in 10.0 mi Calm Calm - N/A   Clear
10:53 AM 72.0 °F 55.0 °F 55% 30.18 in 10.0 mi WNW 5.8 mph - N/A   Partly Cloudy
11:53 AM 73.9 °F 54.0 °F 50% 30.17 in 10.0 mi WNW 6.9 mph - N/A   Partly Cloudy
12:53 PM 75.9 °F 52.0 °F 43% 30.15 in 10.0 mi WNW 13.8 mph 19.6 mph N/A   Partly Cloudy
1:53 PM 78.1 °F 51.1 °F 39% 30.14 in 10.0 mi WNW 11.5 mph 20.7 mph N/A   Clear
2:53 PM 79.0 °F 50.0 °F 36% 30.12 in 10.0 mi WNW 11.5 mph - N/A   Clear
3:53 PM 80.1 °F 46.9 °F 31% 30.10 in 10.0 mi WNW 13.8 mph - N/A   Clear
4:53 PM 79.0 °F 46.0 °F 31% 30.09 in 10.0 mi WNW 15.0 mph 21.9 mph N/A   Clear
5:53 PM 79.0 °F 48.9 °F 35% 30.09 in 10.0 mi WNW 10.4 mph - N/A   Clear
6:53 PM 75.9 °F 52.0 °F 43% 30.08 in 10.0 mi NW 5.8 mph - N/A   Clear
7:53 PM 71.1 °F 55.9 °F 59% 30.08 in 10.0 mi WNW 4.6 mph - N/A   Clear
8:53 PM 64.0 °F 55.0 °F 73% 30.09 in 10.0 mi North 6.9 mph - N/A   Clear
9:53 PM 57.0 °F 54.0 °F 89% 30.11 in 10.0 mi North 5.8 mph - N/A   Clear
10:53 PM 63.0 °F 51.1 °F 65% 30.10 in 10.0 mi NNE 8.1 mph - N/A   Clear
11:53 PM 59.0 °F 50.0 °F 72% 30.12 in 10.0 mi NNE 6.9 mph - N/A   Clear